User: anonymous   Login
Location: Fort Wayne
(41.1310°N, 85.1290°W)
Time: 19:26:31
(UTC-05:00)
Language:

Cosmos 2219 Rocket - Orbit

View from above orbital plane
View from above orbital plane
View from above satellite
View from above satellite

Ground track
Ground track

The orbit data is extracted from the following two-line orbital elements,

1 22220U 92076B   17022.21295334  .00000127  00000-0  87856-4 0  9991
2 22220  70.9989   6.5160 0011429 144.3936 299.1716 14.16409583250101
Epoch (UTC): 22 January 2017 05:06:39
Eccentricity: 0.0011429
inclination: 70.9989°
perigee height: 829 km
apogee height: 846 km
right ascension of ascending node: 6.5160°
argument of perigee: 144.3936°
revolutions per day: 14.16409583
mean anomaly at epoch: 299.1716°
orbit number at epoch: 25010

The dashed part of the orbit path shows where the satellite is in the earth's shadow,  

DLR